Home > Weather > Sarpsborg > Past weeks

Flag for Norway Weather for the Past 2 Weeks in Sarpsborg, Norway

Now
41 °F

Drizzle. Partly sunny.


Feels Like: 32 °F
Forecast: 37 / 40 °F
Wind: 21 mph from South

Location: Rygge

Current Time: Feb 7, 2016 at 4:41:16 PM

Latest Report: Feb 7, 2016 at 3:50 PM


Visibility: 4 mi

Pressure: 29.15 "Hg

Humidity: 100%

Dew point: 41 °F

Location of SarpsborgLocation

Historic Weather in Sarpsborg — Graph

°F

Sarpsborg Temperature Yesterday

Maximum temperature yesterday: 43 °F (at 9:20 AM)
Minimum temperature yesterday: 37 °F (at 12:20 AM)
Average temperature yesterday: 40 °F

High & Low Weather Summary for the Past Weeks

 TemperatureHumidityPressure
High43 °F (Jan 28, 12:20 PM)100% (Jan 23, 5:50 PM)30.18 "Hg (Jan 23, 5:50 PM)
Low25 °F (Feb 4, 5:50 AM)45% (Jan 31, 2:20 PM)28.77 "Hg (Feb 2, 6:20 PM)
Average36 °F85%29.47 "Hg
* Reported Jan 23 3:20 PM — Feb 7 3:20 PM, Sarpsborg, Weather by CustomWeather, © 2016

Note: Actual official high and low records may vary slightly from our data, if they occured in-between our weather recording intervals... More about our weather records

Advertising

Sarpsborg Weather History for the Previous 24 Hours

 ConditionsComfort  
Time TempWeatherWind HumidityBarometerVisibility
3:20 PM
Sun, Feb 7
41 °FLight rain. Partly sunny.18 mph93%29.15 "Hg4 mi
2:50 PM41 °FDrizzle. Partly sunny.18 mph100%29.15 "Hg5 mi
2:20 PM41 °FRain. Partly sunny.18 mph93%29.18 "Hg4 mi
1:50 PM41 °FLight rain. Partly sunny.15 mph93%29.18 "Hg4 mi
1:20 PM41 °FLight rain. Partly sunny.16 mph93%29.21 "Hg6 mi
12:50 PM41 °FLight rain. Partly sunny.16 mph93%29.21 "Hg6 mi
12:20 PM41 °FPartly sunny.16 mph93%29.24 "HgN/A
11:50 AM41 °FPartly sunny.15 mph93%29.24 "HgN/A
11:20 AM41 °FPartly sunny.16 mph93%29.24 "HgN/A
10:50 AM41 °FPartly sunny.16 mph93%29.27 "Hg6 mi
10:20 AM41 °FPartly sunny.16 mph93%29.27 "Hg5 mi
9:50 AM41 °FPartly sunny.16 mph93%29.27 "Hg5 mi
9:20 AM41 °FPartly sunny.16 mph93%29.27 "Hg4 mi
8:50 AM41 °FPartly sunny.16 mph93%29.27 "Hg4 mi
8:20 AM41 °FPartly sunny.15 mph93%29.27 "Hg4 mi
7:50 AM41 °FPartly cloudy.17 mph93%29.30 "Hg5 mi
7:20 AM41 °FPartly cloudy.13 mph93%29.30 "Hg5 mi
6:50 AM41 °FPartly cloudy.16 mph93%29.30 "Hg6 mi
6:20 AM43 °FPartly cloudy.17 mph87%29.30 "Hg5 mi
5:50 AM43 °FOvercast.16 mph87%29.30 "Hg5 mi
5:20 AM43 °FOvercast.18 mph93%29.30 "Hg5 mi
4:50 AM43 °FMostly cloudy.21 mph93%29.30 "Hg4 mi
4:20 AM43 °FMostly cloudy.22 mph93%29.30 "Hg4 mi
3:50 AM43 °FOvercast.21 mph93%29.33 "Hg4 mi
3:20 AM43 °FLight rain. Low clouds.21 mph93%29.33 "Hg2 mi
2:50 AM43 °FMostly cloudy.23 mph93%29.33 "Hg4 mi
2:20 AM41 °FFog.22 mph100%29.33 "Hg2 mi
1:50 AM43 °FLight rain. Low clouds.21 mph93%29.36 "Hg1 mi
1:20 AM43 °FDrizzle. Low clouds.21 mph93%29.36 "Hg2 mi
12:50 AM43 °FLight rain. Low clouds.23 mph100%29.36 "Hg3 mi
12:20 AM43 °FLight rain. Low clouds.20 mph100%29.39 "Hg3 mi
11:50 PM
Sat, Feb 6
43 °FLight rain. Low clouds.18 mph100%29.39 "Hg3 mi
11:20 PM43 °FLight rain. Low clouds.18 mph100%29.42 "Hg3 mi
10:50 PM41 °FLight rain. Low clouds.12 mph93%29.42 "Hg5 mi
9:50 PM37 °FLight rain. Passing clouds.7 mph100%29.45 "Hg3 mi
9:20 PM37 °FLight rain. Passing clouds.7 mph100%29.47 "Hg4 mi
8:50 PM37 °FPartly cloudy.6 mph100%29.47 "Hg5 mi
8:20 PM39 °FPassing clouds.5 mph93%29.50 "Hg4 mi
7:50 PM39 °FPassing clouds.8 mph93%29.50 "Hg4 mi
7:20 PM37 °FPassing clouds.6 mph93%29.50 "HgN/A
6:50 PM37 °FPartly cloudy.5 mph93%29.50 "Hg6 mi
6:20 PM37 °FPassing clouds.8 mph100%29.50 "HgN/A
5:50 PM37 °FPassing clouds.12 mph100%29.50 "Hg6 mi
5:20 PM37 °FPassing clouds.12 mph100%29.50 "HgN/A
4:50 PM37 °FPassing clouds.5 mph93%29.50 "HgN/A
4:20 PM37 °FPartly sunny.8 mph100%29.50 "HgN/A
Weather by CustomWeather, © 2016

See weather overviewHow to use our weather pages